Tracking 28790 objects as of 19-Apr-2024
HD Live streaming from Space Station
objects crossing your sky now

STARLINK-5117

Track STARLINK-5117 now!
10-day predictions
STARLINK-5117 is classified as:


NORAD ID: 54172
Int'l Code: 2022-141R
Perigee: 545.7 km
Apogee: 548.1 km
Inclination: 53.2 °
Period: 95.4 minutes
Semi major axis: 6917 km
RCS: Unknown
Launch date: October 28, 2022
Source: United States (US)
Launch site: AIR FORCE WESTERN TEST RANGE (AFWTR)
Your satellite tracking list
Your tracking list is empty




NASA's NSSDC Master Catalog

Two Line Element Set (TLE):
1 54172U 22141R   24109.57180798  .00008268  00000-0  53709-3 0  9991
2 54172  53.2156 222.1511 0001740  84.5675 275.5516 15.08832209 81675
Source of the keplerian elements: AFSPC